Overview Statistics Trail Chart Weather Telemetry Raw packets
 

This is the latest recevied weather packets stored in our database for station/object SV9TNF-56. If no packets are shown the sender has not sent any weather packets the latest 10 day(s).

<< 31 32 33 34 35 36 37 >>
Time Temp. Humidity Pressure Rain* Wind** Luminosity Snow
1788443355 26.67° C 53% 1008.5 hPa 0 mm 21.46 m/s, 150° - -
1788443055 26.11° C 54% 1008.5 hPa 0 mm 12.07 m/s, 242° - -
1788442755 26.11° C 53% 1008.5 hPa 0 mm 17.88 m/s, 174° - -
1788442455 26.11° C 55% 1008.5 hPa 0 mm 13.86 m/s, 204° - -
1788442155 26.11° C 55% 1008.5 hPa 0 mm 10.28 m/s, 186° - -
1788441855 26.11° C 54% 1008.5 hPa 0 mm 16.99 m/s, 114° - -
1788441555 26.11° C 55% 1008.5 hPa 0 mm 16.99 m/s, 132° - -
1788441254 25.56° C 57% 1008.5 hPa 0 mm 17.88 m/s, 131° - -
1788440954 25.56° C 59% 1008.5 hPa 0 mm 27.72 m/s, 137° - -
1788440654 26.11° C 59% 1008.5 hPa 0 mm 12.52 m/s, 204° - -
1788440355 26.11° C 59% 1008.5 hPa 0 mm 21.46 m/s, 210° - -
1788440054 26.11° C 58% 1008.5 hPa 0 mm 11.18 m/s, 85° - -
1788439754 26.11° C 61% 1008.8 hPa 0 mm 4.92 m/s, 203° - -
1788439473 26.11° C 62% 1008.8 hPa 0 mm 13.86 m/s, 244° - -
1788439154 26.11° C 60% 1008.8 hPa 0 mm 12.52 m/s, 176° - -
1788438859 26.11° C 61% 1008.8 hPa 0 mm 19.67 m/s, 97° - -
1788438554 26.11° C 60% 1009.1 hPa 0 mm 14.75 m/s, 120° - -
1788438254 26.11° C 60% 1008.8 hPa 0 mm 18.33 m/s, 204° - -
1788437954 26.11° C 60% 1008.8 hPa 0 mm 13.86 m/s, 72° - -
1788437653 26.11° C 60% 1008.8 hPa 0 mm 25.93 m/s, 122° - -
1788437353 26.11° C 62% 1009.1 hPa 0 mm 24.59 m/s, 94° - -
1788437053 26.11° C 60% 1009.1 hPa 0 mm 24.59 m/s, 144° - -
1788436753 26.11° C 59% 1009.1 hPa 0 mm 25.48 m/s, 149° - -
1788436453 26.11° C 60% 1009.1 hPa 0 mm 8.94 m/s, 146° - -
1788436153 26.11° C 60% 1009.1 hPa 0 mm 11.18 m/s, 272° - -

* Rain latest hour (hover to see other rain measurements)
** Current wind speed in m/s (hover to see current wind gust speed)